Location: Kerberlivit
(48.2787°N, 4.5413°W)
Time: 08:35:31
(UTC+00:00)

IDEFIX/ARIANE 42P - Pass Details

Date: 18 February 2020
Orbit: 784 x 804 km, 98.3° (Epoch: 09 April)

Event Time Altitude Azimuth Distance (km) Brightness Sun altitude
Rises 04:57:15 0° 6° (N) 3,321 6.0 -24.5°
Reaches altitude 10° 04:59:48 10° 357° (N) 2,384 5.1 -24.1°
Enters shadow 05:02:42 26° 330° (NNW) 1,534 3.8 -23.6°
